Regional Weather Roundup
Issued by NWS

Home | Current Version | Previous Version | Text Only | Print | Product List | Glossary Off
Versions: 1 2 3 4 5 6 7 8 9 10 11 12 13 14 15 16 17 18 19 20 21 22 23 24 25 26 27 28 29 30 31 32 33 34 35 36 37 38 39 40 41 42 43 44 45 46 47 48 49 50

000
ASUS43 KMKX 291121
RWRWI

WISCONSIN REGIONAL WEATHER ROUNDUP
NATIONAL WEATHER SERVICE MILWAUKEE/SULLIVAN WI
600 AM CDT SUN MAY 29 2016

NOTE: "FAIR" INDICATES FEW OR NO CLOUDS BELOW 12,000 FEET WITH NO
SIGNIFICANT WEATHER AND/OR OBSTRUCTIONS TO VISIBILITY.

WIZ001-002-006>008-014>016-023>028-291200-
NORTHWEST WISCONSIN

CITY           SKY/WX    TMP DP  RH WIND       PRES   REMARKS
SUPERIOR ARPT  CLOUDY    54  54 100 SW3       29.80R FOG
ASHLAND        CLOUDY    55  54  96 SW6       29.79S
HAYWARD        RAIN      58  57  97 SW3       29.82R FOG
SIREN          CLOUDY    59  58  97 W7        29.83S
CUMBERLAND     CLOUDY    59  55  88 W8        29.84R
RICE LAKE      MOCLDY    60  58  93 CALM      29.85R
CHETEK         CLOUDY    60  60 100 W3        29.84R
LADYSMITH      CLOUDY    61  60  96 SW6       29.84R
EAU CLAIRE     CLOUDY    61  60  97 W8        29.84R
MENOMONIE      CLOUDY    61  61  99 SW7       29.85R
NEW RICHMOND   CLOUDY    60  60 100 W6        29.86R FOG
OSCEOLA        CLOUDY    60  60 100 W6        29.87S
$$

WIZ003>005-009-010-017-018-291200-
NORTH CENTRAL WISCONSIN

CITY           SKY/WX    TMP DP  RH WIND       PRES   REMARKS
MANITOWISH WTR NOT AVBL
ARBOR VITAE    CLOUDY    60  58  95 SW5       29.82S
WOODRUFF       CLOUDY    60  58  95 SW5       29.82S
RHINELANDER    CLOUDY    60  58  92 SW8       29.84R
EAGLE RIVER      N/A     60  59  98 SW7       29.83R
LAND O LAKES   CLOUDY    60  59  97 SW6       29.83R
PHILLIPS       CLOUDY    59  59 100 S5        29.82R
TOMAHAWK       CLOUDY    58  57  96 CALM      29.84S
MEDFORD        CLOUDY    58  58 100 SW3       29.84R
MERRILL        CLOUDY    62  62 100 CALM      29.84S
$$

WIZ029-030-035-036-043>047-291200-
CENTRAL WISCONSIN

CITY           SKY/WX    TMP DP  RH WIND       PRES   REMARKS
WAUSAU         CLOUDY    65  61  87 SW7       29.82S
MOSINEE        CLOUDY    61  61 100 S7        29.85R
MARSHFIELD     MOCLDY    62  59  90 SW7       29.84S
STEVENS POINT  CLOUDY    60  60  98 S7        29.86R
WAUPACA        CLOUDY    64  64 100 S5        29.87R
WAUTOMA        PTCLDY    62  60  93 S3        29.87R
WISC RAPIDS    CLOUDY    64  59  83 SW7       29.86R
CAMP DOUGLAS   MOCLDY    62  62 100 S3        29.85R
$$

WIZ011>013-019>022-031-037>040-048>050-291200-
NORTHEAST WISCONSIN

CITY           SKY/WX    TMP DP  RH WIND       PRES   REMARKS
ANTIGO         CLOUDY    61  61  99 CALM      29.85S
SHAWANO        CLEAR     64  61  93 CALM      29.86R
OCONTO         CLEAR    N/A N/A N/A CALM      29.85R
STURGEON BAY   NOT AVBL
GREEN BAY      CLEAR     64  62  93 S8        29.86R
MANITOWOC      CLEAR     62  61  96 S8        29.90R
APPLETON       PTCLDY    63  63 100 S8        29.86R
CLINTONVILLE   CLEAR     61  61 100 S5        29.85R
OSHKOSH        CLEAR     63  60  90 S9        29.88R
$$

WIZ032>034-041-042-053>061-291200-
SOUTHWEST WISCONSIN

CITY           SKY/WX    TMP DP  RH WIND       PRES   REMARKS
LA CROSSE      CLOUDY    64  60  87 W5        29.86R
SPARTA         CLOUDY    62  61  96 SW3       29.86R
VIROQUA        CLOUDY    61  61 100 SW7       29.88R
BOSCOBEL       CLOUDY    64  61  90 SW6       29.88R
PRAIRIE DU CHI PTCLDY    64  59  84 SW7       29.89R
PLATTEVILLE    CLOUDY    63  61  92 SW15      29.91R
$$

WIZ056-057-062-063-064-067-068-291200-
SOUTH CENTRAL WISCONSIN

CITY           SKY/WX    TMP DP  RH WIND       PRES   REMARKS
REEDSBURG      CLOUDY    62  60  96 S8        29.87R
BARABOO/DELLS  PTCLDY    62  58  88 SW8       29.87S
LONE ROCK      CLOUDY    64  59  83 SW8       29.88R
MINERAL POINT  CLOUDY    63  61  94 SW12      29.90R
MADISON        PTCLDY    64  58  80 S9        29.89R
MIDDLETON      CLEAR     63  59  87 SW3       29.90R
WATERTOWN      CLEAR     62  62  99 S5        29.90R
MONROE         CLEAR     61  59  94 S10       29.92R
JANESVILLE     PTCLDY    64  63  94 S7        29.92R
$$

WIZ051-052-058>065-066-070>072-291200-
SOUTHEAST WISCONSIN

CITY           SKY/WX    TMP DP  RH WIND       PRES   REMARKS
MILWAUKEE      PTCLDY    64  62  93 S7        29.93R
WAUKESHA       CLEAR     61  61 100 S6        29.93S
MILWAUKEE/TIMM CLEAR     63  59  88 S6        29.93R
RACINE         PTCLDY    64  61  90 SW9       29.96R
BURLINGTON     CLEAR     61  61  98 S6        29.94R
KENOSHA        PTCLDY    63  61  93 S7        29.95R
FOND DU LAC    CLEAR     64  61  90 S9        29.89R
SHEBOYGAN      CLEAR     61  60  97 S7        29.90R
WEST BEND      CLEAR     61  59  94 S5        29.91S
JUNEAU         CLEAR     61  59  92 S8        29.91R
$$

LSZ147-162-291200-
LAKE SUPERIOR

STATION/POSITION TIME  TEMP    WIND        PRES    WAVE
                       AIR SEA DIR/SP/G            HT/PER
                 (UTC) (F)     (DEG/KT/KT) (MB)    (FT/S)
W MID LAKE BUOY  1050   41 38  200/  4/  4 1008.5R   1
DEVILS ISLAND    1100   45     240/ 12/ 13 1008.9R
SAXON HARBOR     1000   51      CALM  /  4 1007.8
$$

LMZ867-665-643>646-291200-
LAKE MICHIGAN

STATION/POSITION TIME  TEMP    WIND        PRES    WAVE
                       AIR SEA DIR/SP/G            HT/PER
                 (UTC) (F)     (DEG/KT/KT) (MB)    (FT/S)
CHAMBERS ISLAND  1000   60     150/  4/  7 1010.8R
N MID LAKE BUOY  1050   51 46  190/ 14/ 17 1011.4R   2/ 5
NORTHPORT PIER   1000   53     160/  8/ 12 1011.2S
SISTER BAY       1020   54     170/ 11/ 16   N/A
ALGOMA LAKESHORE 1017          220/  8/ 10   N/A
KEWAUNEE LAKESHO 1000   51     170/  6/  7 1010.9R
SHEBOYGAN LAKESH 1100   58     190/ 11/ 11 1013.0R
PORT WASHINGTON  1040   53      CALM  /  1 1013.9R
S MID LAKE BUOY  1050   55 50  190/ 10/ 12 1014.1R   1/ 3
KENOSHA   LAKESH 1100   64     200/  7/ 10 1014.2R
$$

TC  - TEMPERATURE IN CELSIUS
VSB - VISIBILITY IN STATUTE MILES
WCI - WIND CHILL INDEX
HX  - HEAT INDEX





USA.gov is the U.S. government's official web portal to all federal, state and local government web resources and services.